Vertical_Velocity
-2 -3 -2 -3 -3 -0 -1 1 -0 2 2 2 3 2 3 0 2 -1 0 -2 1 4 3 2 -1 -3 -2 1 0 1 -1 -1 0 1 -1 -0 -2 -1 -3 -3 -2 -2 -1
-3 -2 -3 -2 -3 -0 -1 1 -0 1 1 1 1 1 2 3 1 0 -2 -2 -3 -5 3 3 2 -1 -2 -1 2 0 -1 -0 -1 1 -1 -2 -3 -2 -1 -1 -1 -2 -3
-3 -2 0 -2 -3 -1 2 0 -2 -2 -0 4 3 2 -0 -0 -1 -0 1 4 3 0 -5 -1 2 1 -0 0 -1 -0 -1 -1 1 1 -1 -6 1 2 0 2 1 1 2
-3 -1 -1 -1 -0 -0 2 -2 1 -1 -3 -1 -3 -2 1 3 1 2 1 -0 3 1 3 -1 -2 -2 -1 -1 -2 -0 0 1 -1 -2 -1 -3 -1 0 -2 1 -0 0 2
-3 -1 -0 0 -1 -1 1 2 -0 1 2 2 2 3 1 -8 4 4 1 1 2 5 3 -5 0 -3 -0 -2 -0 0 -1 -0 -0 2 2 -1 -2 1 -2 2 2 -2 1
-2 -3 -1 1 -1 -2 1 2 2 1 -1 2 -0 11 -2 15 10 -4 9 2 8 -1 3 8 -1 -2 1 -1 -3 0 1 1 -1 0 -3 -1 -2 6 1 -5 -1 -0 -6
-0 -2 0 2 1 -3 1 2 4 4 -1 -2 -4 -61 29 16 17 6 8 4 1 -5 -0 9 -0 5 2 -1 -1 -2 -1 -1 -1 -0 1 2 -2 -5 3 -0 2 -1 -0
1 -0 -2 -1 1 -0 -1 4 2 3 5 0 1 -8 9 -68 -8 -17 -1 -7 -1 -1 2 1 4 -2 1 2 0 -2 -0 2 2 2 -1 1 -1 5 -3 -5 -1 -3 1
9 2 3 -2 -2 7 -6 3 3 3 2 1 0 2 8 -18 2 -6 -15 45 -10 -2 -3 2 3 1 -1 3 4 3 -1 -0 2 4 -1 2 -1 -7 3 1 -3 -4 -1
7 3 1 -1 -3 -1 3 -2 3 4 3 -1 1 1 5 2 3 -2 -18 -41 11 -0 -2 9 1 2 -0 2 -1 -1 -0 -1 -0 3 2 8 -3 3 -8 -1 1 -2 -4
-5 2 1 1 -1 -0 2 3 2 3 3 1 4 -0 3 -3 3 0 -2 -18 -3 3 -0 5 8 -2 1 2 3 -1 -1 -3 3 -10 7 13 -6 -4 2 0 -2 -1 2
-2 -2 -1 1 -1 -1 -3 1 5 2 2 2 4 3 1 0 -2 -5 -6 -19 5 -11 -0 4 7 -0 -0 -1 0 -0 0 -1 3 -7 10 0 -3 1 -2 -2 1 -3 2
8 -0 3 3 2 -1 -2 -1 3 1 2 5 9 3 5 4 2 -0 2 -2 5 4 -1 4 3 -0 -0 -5 5 -0 2 -0 3 -3 6 -3 -1 -5 -2 0 1 -1 2
-1 7 5 3 -1 -1 -0 -3 3 1 4 1 6 13 1 -0 2 -0 -0 -6 9 -4 2 -3 -1 -0 -1 1 7 4 -9 6 4 5 -1 -3 -5 -1 -2 2 0 -1 -0
-0 3 4 4 3 2 -2 -1 3 -0 5 1 -1 14 8 10 -0 1 7 3 3 3 -2 -5 3 -2 2 3 1 2 4 4 1 -3 -3 0 4 0 0 0 -3 3 3
6 -4 9 10 5 6 -2 -3 -0 3 2 4 6 -3 -1 1 2 3 3 4 -4 14 -5 -3 1 -1 3 2 -0 4 4 -0 -3 1 1 -1 1 5 1 -1 0 3 1
3 11 2 7 4 4 1 1 -1 4 -2 -0 1 2 1 3 3 3 1 -3 5 -0 6 -1 3 2 1 1 3 -7 9 -2 3 -0 1 4 1 1 -2 0 -3 8 -6
1 -5 9 5 2 2 -0 1 -1 2 -1 -1 -1 3 3 4 2 6 1 -1 -4 5 5 -1 1 -0 1 -0 1 -11 9 3 -3 1 0 0 -0 1 -0 -0 3 3 -1
-1 -3 2 5 -1 2 3 -0 1 -3 0 1 2 2 6 1 20 1 5 -4 7 4 6 -4 -1 0 3 -2 8 -2 7 2 -3 0 4 -2 2 1 -7 3 3 -1 0
-3 1 2 7 4 2 3 -1 4 -4 -1 -2 1 -4 1 14 7 13 -1 -3 -2 3 9 2 4 4 -1 2 -2 6 8 1 6 5 -1 0 7 -6 -1 2 -0 -1 1
-1 0 -3 1 3 1 -2 -5 1 -5 -2 1 4 0 -5 6 2 35 -8 6 3 2 -2 -4 -2 3 5 2 -2 11 0 6 2 0 -1 2 1 -4 -0 1 0 0 2
-1 -0 -4 4 -1 1 -2 -0 -1 -1 -2 2 4 -1 1 12 -1 1 -5 -1 -0 4 7 1 3 -2 4 5 -4 4 2 9 2 1 2 -2 -0 -2 -2 3 4 -1 -3
-1 3 4 11 -1 0 -2 -0 5 4 2 4 1 0 -3 5 -1 3 3 7 2 5 -3 -3 -4 -2 -5 3 6 -9 -4 -3 -1 -0 -4 -3 5 -1 -0 7 3 -2 -0
1 -0 5 6 5 -2 -2 -0 3 -2 -4 -2 1 -1 -2 9 -11 0 -3 4 2 2 1 -2 3 1 -2 -5 4 7 3 -6 -7 -3 1 -3 0 -5 -3 6 0 -0 -1
3 1 0 1 7 -3 -2 2 4 -1 -2 0 -2 6 -2 0 -0 -2 -0 -2 -1 2 5 -1 -2 1 -1 5 -2 -4 -0 -1 -0 -5 -4 -3 -2 2 -1 2 4 -0 0
-1 2 -1 1 4 -5 -2 5 4 0 -4 0 0 -3 9 2 -2 -1 -5 -8 -4 1 0 -1 1 -3 -0 1 1 4 -7 -9 -5 -0 2 -8 -8 2 0 3 1 1 3
Height
1484 1484 1484 1485 1485 1486 1486 1488 1491 1494 1497 1499 1501 1503 1506 1508 1510 1512 1514 1517 1518 1520 1521 1522 1525 1528 1530 1532 1534 1535 1537 1539 1540 1542 1543 1545 1546 1547 1549 1550 1552 1552 1554
1482 1483 1483 1483 1484 1485 1486 1488 1491 1494 1497 1499 1501 1503 1506 1508 1511 1513 1515 1517 1518 1521 1524 1526 1527 1529 1531 1534 1536 1537 1538 1540 1541 1543 1545 1546 1548 1549 1551 1552 1554 1554 1555
1481 1482 1482 1482 1483 1484 1486 1488 1490 1493 1497 1499 1502 1504 1507 1509 1512 1514 1516 1518 1519 1521 1524 1527 1529 1530 1532 1534 1536 1538 1540 1541 1543 1544 1545 1548 1550 1551 1552 1554 1555 1557 1557
1480 1481 1481 1480 1482 1484 1486 1487 1489 1492 1496 1499 1502 1505 1508 1510 1512 1514 1517 1519 1521 1522 1524 1527 1530 1532 1532 1535 1538 1540 1541 1543 1544 1545 1547 1548 1551 1553 1554 1556 1557 1558 1559
1479 1480 1480 1480 1481 1484 1486 1488 1489 1492 1495 1499 1501 1505 1508 1511 1513 1515 1518 1520 1522 1524 1524 1526 1530 1531 1533 1536 1538 1540 1542 1544 1546 1547 1548 1549 1552 1554 1555 1557 1558 1559 1562
1477 1480 1480 1480 1481 1483 1486 1488 1489 1491 1494 1496 1501 1506 1508 1511 1510 1514 1516 1519 1522 1525 1528 1526 1528 1530 1533 1535 1538 1541 1544 1545 1547 1548 1550 1550 1552 1554 1555 1557 1558 1560 1563
1475 1478 1479 1480 1480 1482 1485 1487 1490 1491 1492 1495 1499 1499 1504 1511 1514 1515 1515 1520 1521 1524 1529 1529 1528 1531 1533 1536 1538 1541 1544 1546 1547 1549 1550 1552 1552 1555 1556 1557 1558 1559 1563
1473 1475 1478 1480 1481 1481 1485 1487 1488 1490 1491 1493 1494 1497 1499 1506 1513 1520 1520 1521 1521 1525 1529 1530 1529 1531 1534 1537 1538 1541 1545 1547 1548 1549 1550 1552 1553 1555 1556 1557 1558 1560 1563
1472 1473 1475 1477 1480 1480 1482 1486 1487 1488 1490 1492 1493 1494 1496 1498 1510 1509 1509 1523 1522 1526 1528 1529 1528 1531 1535 1538 1540 1542 1545 1547 1549 1549 1551 1551 1553 1555 1556 1557 1559 1561 1563
1472 1471 1473 1474 1477 1479 1480 1483 1485 1486 1488 1490 1491 1492 1496 1500 1504 1504 1506 1517 1524 1524 1527 1528 1527 1531 1535 1539 1541 1543 1546 1548 1550 1551 1551 1552 1553 1555 1558 1559 1561 1562 1564
1467 1469 1469 1471 1473 1476 1478 1479 1482 1484 1485 1487 1488 1490 1494 1497 1500 1502 1506 1513 1520 1523 1526 1527 1528 1531 1536 1539 1541 1543 1546 1548 1550 1552 1552 1553 1554 1557 1559 1560 1562 1564 1566
1463 1463 1465 1466 1468 1472 1475 1477 1477 1480 1481 1484 1485 1487 1489 1493 1497 1500 1505 1508 1513 1521 1524 1525 1528 1531 1535 1538 1540 1543 1546 1548 1550 1552 1554 1554 1556 1559 1561 1562 1564 1566 1568
1456 1459 1460 1461 1464 1467 1470 1472 1473 1475 1477 1480 1481 1482 1485 1489 1494 1499 1502 1506 1510 1515 1521 1524 1527 1530 1534 1538 1539 1543 1547 1549 1550 1552 1553 1555 1558 1560 1561 1564 1565 1567 1568
1452 1455 1456 1458 1459 1462 1465 1467 1469 1470 1472 1475 1477 1479 1481 1484 1489 1493 1499 1501 1506 1512 1517 1520 1524 1529 1534 1538 1541 1543 1547 1548 1551 1552 1555 1556 1559 1560 1562 1565 1566 1567 1568
1450 1450 1452 1453 1454 1456 1459 1463 1464 1465 1466 1469 1472 1473 1477 1480 1484 1489 1495 1499 1504 1508 1513 1519 1524 1528 1533 1537 1541 1544 1546 1550 1552 1553 1555 1557 1558 1561 1563 1565 1567 1569 1570
1444 1444 1446 1448 1450 1451 1453 1457 1459 1460 1461 1463 1466 1468 1471 1475 1479 1483 1489 1494 1501 1505 1509 1517 1522 1526 1531 1537 1541 1543 1546 1550 1552 1553 1556 1557 1560 1562 1564 1566 1569 1570 1571
1435 1437 1438 1441 1445 1447 1449 1452 1454 1454 1455 1457 1460 1463 1465 1468 1471 1477 1483 1489 1496 1502 1507 1515 1522 1526 1531 1536 1540 1544 1545 1549 1551 1554 1556 1558 1560 1562 1564 1567 1568 1570 1572
1426 1424 1428 1433 1438 1442 1444 1447 1449 1449 1450 1453 1456 1458 1460 1462 1464 1471 1477 1483 1491 1499 1504 1512 1519 1524 1529 1535 1539 1543 1545 1549 1552 1554 1555 1558 1560 1562 1564 1566 1569 1571 1572
1418 1415 1419 1424 1430 1435 1439 1441 1443 1444 1446 1449 1451 1453 1454 1457 1456 1463 1471 1477 1488 1495 1500 1509 1516 1522 1526 1533 1538 1542 1545 1549 1552 1553 1555 1557 1559 1562 1565 1566 1569 1571 1572
1409 1407 1412 1418 1424 1428 1433 1436 1437 1439 1441 1444 1445 1445 1446 1446 1451 1453 1463 1472 1484 1492 1498 1506 1513 1519 1525 1532 1537 1541 1545 1548 1551 1553 1555 1557 1560 1562 1564 1566 1568 1570 1572
1401 1401 1404 1409 1418 1422 1425 1429 1431 1433 1436 1438 1440 1439 1438 1438 1445 1444 1456 1468 1479 1487 1494 1503 1511 1516 1524 1530 1535 1540 1543 1547 1549 1551 1554 1557 1559 1561 1563 1565 1567 1569 1571
1395 1395 1399 1404 1412 1417 1421 1424 1426 1429 1432 1435 1436 1434 1436 1436 1437 1443 1453 1464 1476 1484 1491 1498 1505 1512 1520 1526 1531 1535 1540 1545 1546 1549 1552 1555 1557 1560 1562 1563 1565 1567 1569
1389 1391 1394 1399 1405 1412 1417 1421 1423 1427 1430 1431 1433 1433 1435 1438 1442 1448 1454 1463 1474 1481 1487 1494 1501 1508 1514 1521 1526 1529 1534 1537 1542 1546 1549 1552 1554 1556 1559 1561 1564 1565 1567
1387 1388 1393 1399 1402 1408 1414 1417 1419 1421 1424 1427 1431 1432 1435 1439 1444 1449 1456 1464 1471 1477 1484 1491 1499 1505 1510 1515 1522 1526 1530 1533 1538 1543 1546 1549 1552 1553 1556 1558 1561 1562 1564
1383 1384 1389 1395 1399 1405 1411 1414 1416 1419 1423 1426 1430 1432 1435 1440 1444 1448 1455 1461 1468 1474 1482 1488 1494 1501 1506 1512 1516 1521 1527 1531 1535 1537 1540 1545 1548 1551 1553 1555 1557 1559 1560
1379 1379 1384 1389 1395 1401 1408 1411 1412 1415 1420 1425 1428 1430 1434 1438 1442 1447 1452 1459 1464 1471 1477 1484 1491 1497 1503 1509 1515 1519 1523 1527 1531 1534 1535 1542 1546 1548 1550 1552 1553 1556 1556